• In Netherlands
  • List of Countries
  • For 7 days
  • Water Temperature
  • Satellite Maps
  • Weather Map
  • Weather Widgets
  • user-avatar
    Login

    Hourly Weather Liege

    Today, 26 March, Sunday

    Time Temperature Precipitation Wind Pressure Humidity
    00:00 +5°C° 0 mm 3 mps 758 mmHg 83%
    01:00 +4°C° 0 mm 3 mps 758 mmHg 84%
    02:00 +4°C° 0 mm 4 mps 758 mmHg 85%
    03:00 +4°C° 0 mm 4 mps 758 mmHg 87%
    04:00 +3°C° 0 mm 3 mps 758 mmHg 87%
    05:00 +3°C° 0 mm 3 mps 758 mmHg 88%
    06:00 +3°C° 0 mm 3 mps 758 mmHg 89%
    07:00 +5°C° 0 mm 3 mps 758 mmHg 83%
    08:00 +7°C° 0 mm 4 mps 758 mmHg 77%
    09:00 +10°C° 0 mm 4 mps 758 mmHg 71%
    10:00 +11°C° 0 mm 4 mps 758 mmHg 68%
    11:00 +12°C° 0 mm 4 mps 758 mmHg 65%
    12:00 +13°C° 0 mm 4 mps 758 mmHg 62%
    13:00 +14°C° 0 mm 4 mps 758 mmHg 62%
    14:00 +14°C° 0 mm 4 mps 757 mmHg 62%
    15:00 +14°C° 0 mm 4 mps 757 mmHg 62%
    16:00 +12°C° 0 mm 4 mps 757 mmHg 69%
    17:00 +11°C° 0 mm 3 mps 757 mmHg 76%
    18:00 +9°C° 0 mm 3 mps 757 mmHg 83%
    19:00 +8°C° 0 mm 3 mps 758 mmHg 85%
    20:00 +8°C° 0 mm 3 mps 758 mmHg 87%
    21:00 +7°C° 0 mm 3 mps 759 mmHg 88%
    22:00 +7°C° 0 mm 3 mps 759 mmHg 89%
    23:00 +5°C° 0 mm 3 mps 759 mmHg 89%

    Tomorrow, 27 March, Monday

    Time Temperature Precipitation Wind Pressure Humidity
    00:00 +5°C° 0 mm 3 mps 759 mmHg 90%
    01:00 +5°C° 0 mm 3 mps 759 mmHg 89%
    02:00 +4°C° 0 mm 3 mps 758 mmHg 89%
    03:00 +4°C° 0 mm 3 mps 758 mmHg 89%
    04:00 +4°C° 0 mm 3 mps 758 mmHg 86%
    05:00 +3°C° 0 mm 3 mps 758 mmHg 83%
    06:00 +3°C° 0 mm 3 mps 758 mmHg 80%
    07:00 +5°C° 0 mm 4 mps 758 mmHg 73%
    08:00 +7°C° 0 mm 4 mps 758 mmHg 66%
    09:00 +8°C° 0 mm 5 mps 758 mmHg 59%
    10:00 +10°C° 0 mm 5 mps 758 mmHg 57%
    11:00 +12°C° 0 mm 5 mps 758 mmHg 56%
    12:00 +13°C° 0 mm 5 mps 758 mmHg 55%
    13:00 +14°C° 0 mm 5 mps 757 mmHg 56%
    14:00 +14°C° 0 mm 5 mps 757 mmHg 58%
    15:00 +15°C° 0 mm 4 mps 756 mmHg 60%
    16:00 +13°C° 0 mm 4 mps 756 mmHg 68%
    17:00 +11°C° 0 mm 3 mps 756 mmHg 76%
    18:00 +10°C° 0 mm 3 mps 756 mmHg 83%
    19:00 +9°C° 0 mm 3 mps 756 mmHg 85%
    20:00 +9°C° 0 mm 3 mps 756 mmHg 86%
    21:00 +8°C° 0 mm 3 mps 757 mmHg 88%
    22:00 +8°C° 0 mm 3 mps 757 mmHg 89%
    23:00 +8°C° 0 mm 3 mps 757 mmHg 90%

    Day after tomorrow, 28 March, Tuesday

    Time Temperature Precipitation Wind Pressure Humidity
    00:00 +8°C° 0 mm 3 mps 757 mmHg 91%
    01:00 +8°C° 0 mm 3 mps 757 mmHg 92%
    02:00 +8°C° 0 mm 3 mps 757 mmHg 92%
    03:00 +8°C° 0 mm 3 mps 757 mmHg 93%
    04:00 +8°C° 0 mm 3 mps 757 mmHg 93%
    05:00 +8°C° 0 mm 3 mps 757 mmHg 93%
    06:00 +8°C° 0 mm 3 mps 757 mmHg 93%
    07:00 +10°C° 0 mm 3 mps 757 mmHg 88%
    08:00 +12°C° 0 mm 4 mps 757 mmHg 83%
    09:00 +14°C° 0 mm 4 mps 757 mmHg 78%
    10:00 +15°C° 0 mm 5 mps 757 mmHg 74%
    11:00 +16°C° 0 mm 5 mps 757 mmHg 70%
    12:00 +17°C° 0 mm 6 mps 757 mmHg 65%
    13:00 +17°C° 0 mm 6 mps 757 mmHg 66%
    14:00 +17°C° 0 mm 6 mps 756 mmHg 66%
    15:00 +17°C° 0 mm 6 mps 756 mmHg 66%
    16:00 +15°C° 0.1 mm 5 mps 756 mmHg 73%
    17:00 +14°C° 0.1 mm 4 mps 756 mmHg 80%
    18:00 +12°C° 0.1 mm 4 mps 756 mmHg 86%
    19:00 +12°C° 0.2 mm 4 mps 757 mmHg 88%
    20:00 +11°C° 0.2 mm 4 mps 757 mmHg 89%
    21:00 +11°C° 0.2 mm 4 mps 757 mmHg 90%
    22:00 +10°C° 0 mm 4 mps 757 mmHg 91%
    23:00 +10°C° 0 mm 4 mps 757 mmHg 92%

    29 March, Wednesday

    Time Temperature Precipitation Wind Pressure Humidity
    00:00 +8°C° 0 mm 5 mps 757 mmHg 93%
    01:00 +8°C° 0 mm 5 mps 757 mmHg 94%
    02:00 +8°C° 0 mm 5 mps 757 mmHg 95%
    03:00 +8°C° 0 mm 5 mps 757 mmHg 96%
    04:00 +8°C° 0 mm 5 mps 758 mmHg 95%
    05:00 +8°C° 0 mm 5 mps 758 mmHg 94%
    06:00 +9°C° 0 mm 5 mps 758 mmHg 94%
    07:00 +9°C° 0.1 mm 5 mps 758 mmHg 93%
    08:00 +9°C° 0.1 mm 5 mps 758 mmHg 92%
    09:00 +10°C° 0.1 mm 6 mps 758 mmHg 91%
    10:00 +10°C° 0.1 mm 6 mps 758 mmHg 90%
    11:00 +11°C° 0.1 mm 6 mps 758 mmHg 90%
    12:00 +11°C° 0.1 mm 6 mps 758 mmHg 89%
    13:00 +12°C° 0.1 mm 5 mps 758 mmHg 89%
    14:00 +12°C° 0.1 mm 5 mps 758 mmHg 89%
    15:00 +13°C° 0.1 mm 4 mps 758 mmHg 89%
    16:00 +12°C° 0 mm 4 mps 758 mmHg 91%
    17:00 +12°C° 0 mm 3 mps 758 mmHg 92%
    18:00 +12°C° 0 mm 3 mps 758 mmHg 94%
    19:00 +12°C° 0 mm 3 mps 759 mmHg 94%
    20:00 +11°C° 0 mm 3 mps 759 mmHg 95%
    21:00 +11°C° 0 mm 3 mps 759 mmHg 95%
    22:00 +11°C° 0 mm 3 mps 759 mmHg 95%
    23:00 +10°C° 0 mm 2 mps 759 mmHg 95%

    30 March, Thursday

    Time Temperature Precipitation Wind Pressure Humidity
    00:00 +10°C° 0 mm 2 mps 759 mmHg 96%
    01:00 +10°C° 0 mm 2 mps 759 mmHg 95%
    02:00 +10°C° 0 mm 2 mps 759 mmHg 95%
    03:00 +10°C° 0 mm 2 mps 759 mmHg 94%
    04:00 +10°C° 0 mm 3 mps 759 mmHg 94%
    05:00 +10°C° 0 mm 3 mps 759 mmHg 94%
    06:00 +10°C° 0 mm 3 mps 759 mmHg 93%
    07:00 +12°C° 0 mm 3 mps 759 mmHg 89%
    08:00 +14°C° 0 mm 3 mps 759 mmHg 84%
    09:00 +17°C° 0 mm 4 mps 759 mmHg 79%
    10:00 +18°C° 0 mm 4 mps 758 mmHg 75%
    11:00 +19°C° 0 mm 4 mps 758 mmHg 71%
    12:00 +20°C° 0 mm 4 mps 758 mmHg 68%
    13:00 +20°C° 0 mm 4 mps 757 mmHg 67%
    14:00 +20°C° 0 mm 4 mps 756 mmHg 67%
    15:00 +21°C° 0 mm 4 mps 756 mmHg 67%
    16:00 +19°C° 0 mm 4 mps 756 mmHg 74%
    17:00 +18°C° 0 mm 3 mps 755 mmHg 80%
    18:00 +16°C° 0 mm 3 mps 755 mmHg 87%
    19:00 +14°C° 0 mm 4 mps 755 mmHg 87%
    20:00 +14°C° 0 mm 4 mps 755 mmHg 88%
    21:00 +13°C° 0 mm 4 mps 755 mmHg 89%
    22:00 +13°C° 0 mm 4 mps 754 mmHg 89%
    23:00 +13°C° 0 mm 4 mps 754 mmHg 89%

    31 March, Friday

    Time Temperature Precipitation Wind Pressure Humidity
    00:00 +13°C° 0 mm 4 mps 753 mmHg 89%
    01:00 +12°C° 0 mm 4 mps 753 mmHg 90%
    02:00 +12°C° 0 mm 4 mps 752 mmHg 90%
    03:00 +12°C° 0 mm 4 mps 752 mmHg 91%
    04:00 +12°C° 0 mm 4 mps 751 mmHg 90%
    05:00 +12°C° 0 mm 4 mps 751 mmHg 89%
    06:00 +11°C° 0 mm 4 mps 750 mmHg 88%
    07:00 +13°C° 0 mm 5 mps 750 mmHg 83%
    08:00 +14°C° 0 mm 6 mps 750 mmHg 78%
    09:00 +15°C° 0 mm 6 mps 749 mmHg 73%
    10:00 +15°C° 0.1 mm 7 mps 749 mmHg 71%
    11:00 +16°C° 0.1 mm 7 mps 749 mmHg 68%
    12:00 +17°C° 0.1 mm 7 mps 748 mmHg 66%
    13:00 +16°C° 0 mm 7 mps 748 mmHg 69%
    14:00 +16°C° 0 mm 7 mps 748 mmHg 72%
    15:00 +15°C° 0 mm 7 mps 747 mmHg 75%
    16:00 +14°C° 0.1 mm 6 mps 747 mmHg 79%
    17:00 +13°C° 0.1 mm 6 mps 747 mmHg 83%
    18:00 +12°C° 0.1 mm 5 mps 747 mmHg 87%
    19:00 +12°C° 0.1 mm 5 mps 747 mmHg 89%
    20:00 +10°C° 0.1 mm 5 mps 747 mmHg 90%
    21:00 +10°C° 0.1 mm 5 mps 747 mmHg 92%
    22:00 +11°C° 0 mm 4 mps 747 mmHg 93%
    23:00 +10°C° 0 mm 4 mps 747 mmHg 94%
    Show more